Showing default

TELSTAR 1, 340

Orbit data source: Space-Track

TELSTAR 1, 340 is a payload satellite owned by AT&T (US) in LEO that was launched on Tue, 10 Jul 1962 UTC via a THOR DELTA launch vehicle from the Air Force Eastern Test Range (AFETR). Payload-class satellites include a variety of spacecraft equipped with specific instruments for various scientific and technological missions. These include communications satellites like Starlink; space stations such as the ISS; scientific satellites like the Hubble; Earth observation satellites from companies like Planet Labs, Umbra, and HawkEye 360; GPS; miniature CubeSats for education and research; and military/defense satellites.

Loading next visibility...
Identifier
340, 1962-029A
Orbit
LEO
Country
Flag of USUS
Related business
Manufacturer
AT&T/BTL
Mission
Commercial Communications
Bus & Motor
TSX, Unknown motor
Mass
77 kg wet, 77 kg dry
Launch date (UTC)
1962-07-10 (63 years ago)
Launch vehicle
THOR DELTA
Launch site
Air Force Eastern Test Range (AFETR)
Object type
Payload
Rocket body
Debris
Shape & HBR
Sphere, 0.4 m
Radar Cross Section
0.581 m², Medium (>0.1 m² and < 1m²)

Expand to show TLE details & history
Last TLE update: 20 hours ago

TLE from 20 hours ago
0 TELSTAR 1
1 00340U 62029A   25258.91878677 -.00000103  00000-0 -59397-3 0  9993
2 00340  44.8028 110.3666 2424996 317.0246  36.6079  9.12886759107405
Epoch: 2025-09-15T22:03Z
TLE epoch observation values (Epoch: 2025-09-15T22:03:03.176Z)
Latitude
10.46485°
Longitude
155.15199°
Altitude
1,684.465 km
Speed
7.595 km/s
True Right ascension
08h 04m 07s
True Declination
10° 24' 38"
Sunlit
Object was in daylight at epoch
Visualization orbit readout
Latitude
Unknown
Longitude
Unknown
Altitude
Unknown
Speed
Unknown
Apparent Right ascension
Unknown
Apparent Declination
Unknown
Sunlit
N/A
Visualization observer readout
Local Sidereal Time
10:25:58
Azimuth
Unknown
Elevation
Unknown
Doppler factor
Unknown
Orbital elements
Apogee altitude
5,639.274 km
Perigee altitude
948.379 km
Semi-major axis
9,671.964 km
Eccentricity
0.2425
Inclination
44.8028°
RAAN
110.3666°
Arg. of periapsis
317.0246°
True anomaly
57.90339°
Mean anomaly
36.6079°
Eccentric anomaly
46.72366°
Mean motion
2.28177 °/min
Orbital period
157.77 mins
BSTAR
-0.00059397
Loading maneuver chart data...
Computing Atmospheric mass density...
Loading historical data...
Loading historical data...
Loading historical data...
Loading historical data...
Loading historical data...
Loading historical data...
Loading historical data...
Other satellites on launch #29 in the year 1962 (1962-07-10 UTC)

Documentation

Showing up to 5 results
|